User: anonymous   Login
Location: Unspecified
(0.0000°N, 0.0000°E)
Time: 10:25:21
(UTC+02:00)
Language:

ARIANE 5 R/B - Orbit

View from above orbital plane
View from above orbital plane
View from above satellite
View from above satellite

Ground track
Ground track

The orbit data is extracted from the following two-line orbital elements,

1 28379U 04027B   15183.86829237 -.00000096  00000-0 -55336-2 0  9996
2 28379 006.6307 211.8633 7278025 315.2560 276.1426 02.07921730 83257
Epoch (UTC): 02 July 2015 20:50:20
Eccentricity: 0.7278025
inclination: 6.6307°
perigee height: 680 km
apogee height: 38423 km
right ascension of ascending node: 211.8633°
argument of perigee: 315.2560°
revolutions per day: 2.07921730
mean anomaly at epoch: 276.1426°
orbit number at epoch: 8325

The dashed part of the orbit path shows where the satellite is in the earth's shadow,  

DLR